• en France
  • Liste des pays
  • À 7 jours
  • Température de l'eau
  • Carte satellitaire
  • Carte météo
  • Widgets météo
  • user-avatar
    Se connecter

    Météo par heure à Kipungo

    Ce jour, 24 Septembre, Lundi

    Heure Température Précipitation Vent Pression Humidité
    00:00 +23°C° 0 mm 2 m/s 653 mmHg 54%
    01:00 +21°C° 0 mm 2 m/s 652 mmHg 61%
    02:00 +21°C° 0 mm 2 m/s 652 mmHg 63%
    03:00 +21°C° 0 mm 1 m/s 652 mmHg 65%
    04:00 +21°C° 0 mm 1 m/s 652 mmHg 67%
    05:00 +21°C° 0 mm 1 m/s 652 mmHg 63%
    06:00 +22°C° 0 mm 1 m/s 653 mmHg 59%
    07:00 +23°C° 0 mm 1 m/s 654 mmHg 53%
    08:00 +27°C° 0 mm 1 m/s 654 mmHg 41%
    09:00 +31°C° 0 mm 1 m/s 655 mmHg 29%
    10:00 +35°C° 0 mm 1 m/s 656 mmHg 16%
    11:00 +37°C° 0 mm 1 m/s 656 mmHg 14%
    12:00 +41°C° 0 mm 1 m/s 656 mmHg 11%
    13:00 +43°C° 0 mm 1 m/s 656 mmHg 9%
    14:00 +41°C° 0 mm 1 m/s 655 mmHg 10%
    15:00 +39°C° 0 mm 1 m/s 654 mmHg 10%
    16:00 +37°C° 0 mm 1 m/s 653 mmHg 11%
    17:00 +35°C° 0 mm 2 m/s 653 mmHg 17%
    18:00 +32°C° 0 mm 2 m/s 653 mmHg 22%
    19:00 +30°C° 0 mm 3 m/s 653 mmHg 28%
    20:00 +28°C° 0 mm 3 m/s 653 mmHg 35%
    21:00 +27°C° 0 mm 3 m/s 653 mmHg 43%
    22:00 +25°C° 0 mm 3 m/s 654 mmHg 51%
    23:00 +24°C° 0 mm 2 m/s 653 mmHg 55%

    Demain, 25 Septembre, Mardi

    Heure Température Précipitation Vent Pression Humidité
    00:00 +23°C° 0 mm 2 m/s 653 mmHg 59%
    01:00 +21°C° 0 mm 2 m/s 653 mmHg 63%
    02:00 +21°C° 0 mm 2 m/s 653 mmHg 64%
    03:00 +20°C° 0 mm 2 m/s 652 mmHg 64%
    04:00 +20°C° 0 mm 2 m/s 652 mmHg 65%
    05:00 +21°C° 0 mm 1 m/s 653 mmHg 61%
    06:00 +22°C° 0 mm 1 m/s 653 mmHg 57%
    07:00 +23°C° 0 mm 1 m/s 654 mmHg 53%
    08:00 +26°C° 0 mm 1 m/s 654 mmHg 41%
    09:00 +30°C° 0 mm 2 m/s 655 mmHg 29%
    10:00 +34°C° 0 mm 3 m/s 656 mmHg 17%
    11:00 +36°C° 0 mm 2 m/s 656 mmHg 15%
    12:00 +37°C° 0 mm 2 m/s 656 mmHg 13%
    13:00 +39°C° 0 mm 2 m/s 655 mmHg 11%
    14:00 +38°C° 0 mm 2 m/s 654 mmHg 11%
    15:00 +37°C° 0 mm 2 m/s 654 mmHg 11%
    16:00 +37°C° 0 mm 2 m/s 653 mmHg 12%
    17:00 +35°C° 0 mm 2 m/s 653 mmHg 16%
    18:00 +33°C° 0 mm 3 m/s 653 mmHg 21%
    19:00 +30°C° 0 mm 3 m/s 653 mmHg 25%
    20:00 +28°C° 0 mm 3 m/s 653 mmHg 33%
    21:00 +26°C° 0 mm 3 m/s 654 mmHg 41%
    22:00 +24°C° 0 mm 2 m/s 654 mmHg 49%
    23:00 +23°C° 0 mm 2 m/s 653 mmHg 54%

    Après-demain, 26 Septembre, Mercredi

    Heure Température Précipitation Vent Pression Humidité
    00:00 +21°C° 0 mm 2 m/s 653 mmHg 58%
    01:00 +20°C° 0 mm 2 m/s 653 mmHg 63%
    02:00 +20°C° 0 mm 1 m/s 652 mmHg 65%
    03:00 +20°C° 0 mm 1 m/s 652 mmHg 68%
    04:00 +19°C° 0 mm 1 m/s 652 mmHg 71%
    05:00 +18°C° 0 mm 0 m/s 653 mmHg 66%
    06:00 +19°C° 0 mm 0 m/s 653 mmHg 60%
    07:00 +20°C° 0 mm 0 m/s 654 mmHg 55%
    08:00 +25°C° 0 mm 1 m/s 655 mmHg 41%
    09:00 +29°C° 0 mm 2 m/s 656 mmHg 28%
    10:00 +33°C° 0 mm 3 m/s 656 mmHg 14%
    11:00 +35°C° 0 mm 3 m/s 656 mmHg 12%
    12:00 +37°C° 0 mm 3 m/s 655 mmHg 11%
    13:00 +38°C° 0 mm 3 m/s 655 mmHg 9%
    14:00 +38°C° 0 mm 2 m/s 654 mmHg 9%
    15:00 +38°C° 0 mm 2 m/s 653 mmHg 9%
    16:00 +38°C° 0 mm 2 m/s 653 mmHg 9%
    17:00 +36°C° 0 mm 2 m/s 653 mmHg 12%
    18:00 +32°C° 0 mm 2 m/s 653 mmHg 15%
    19:00 +29°C° 0 mm 2 m/s 653 mmHg 19%
    20:00 +28°C° 0 mm 2 m/s 653 mmHg 27%
    21:00 +26°C° 0 mm 3 m/s 653 mmHg 36%
    22:00 +24°C° 0 mm 3 m/s 654 mmHg 45%
    23:00 +23°C° 0 mm 2 m/s 653 mmHg 50%

    27 Septembre, Jeudi

    Heure Température Précipitation Vent Pression Humidité
    00:00 +21°C° 0 mm 2 m/s 653 mmHg 54%
    01:00 +21°C° 0 mm 1 m/s 652 mmHg 59%
    02:00 +20°C° 0 mm 1 m/s 652 mmHg 60%
    03:00 +20°C° 0 mm 1 m/s 652 mmHg 62%
    04:00 +19°C° 0 mm 1 m/s 652 mmHg 63%
    05:00 +18°C° 0 mm 0 m/s 653 mmHg 58%
    06:00 +19°C° 0 mm 0 m/s 653 mmHg 53%
    07:00 +20°C° 0 mm 0 m/s 654 mmHg 48%
    08:00 +26°C° 0 mm 1 m/s 655 mmHg 36%
    09:00 +30°C° 0 mm 2 m/s 656 mmHg 24%
    10:00 +35°C° 0 mm 3 m/s 656 mmHg 13%
    11:00 +36°C° 0 mm 3 m/s 656 mmHg 11%
    12:00 +38°C° 0 mm 3 m/s 655 mmHg 10%
    13:00 +39°C° 0 mm 3 m/s 654 mmHg 9%
    14:00 +39°C° 0 mm 2 m/s 653 mmHg 10%
    15:00 +38°C° 0 mm 2 m/s 653 mmHg 10%
    16:00 +38°C° 0 mm 2 m/s 652 mmHg 11%
    17:00 +36°C° 0 mm 2 m/s 652 mmHg 13%
    18:00 +34°C° 0 mm 2 m/s 653 mmHg 15%
    19:00 +31°C° 0 mm 2 m/s 653 mmHg 17%
    20:00 +29°C° 0 mm 2 m/s 653 mmHg 22%
    21:00 +27°C° 0 mm 2 m/s 653 mmHg 27%
    22:00 +26°C° 0 mm 2 m/s 653 mmHg 32%
    23:00 +24°C° 0 mm 2 m/s 653 mmHg 36%

    28 Septembre, Vendredi

    Heure Température Précipitation Vent Pression Humidité
    00:00 +23°C° 0 mm 1 m/s 652 mmHg 40%
    01:00 +22°C° 0 mm 1 m/s 652 mmHg 44%
    02:00 +21°C° 0 mm 1 m/s 652 mmHg 45%
    03:00 +21°C° 0 mm 1 m/s 652 mmHg 46%
    04:00 +20°C° 0 mm 1 m/s 652 mmHg 46%
    05:00 +21°C° 0 mm 1 m/s 652 mmHg 41%
    06:00 +22°C° 0 mm 1 m/s 653 mmHg 36%
    07:00 +23°C° 0 mm 1 m/s 654 mmHg 31%
    08:00 +27°C° 0 mm 2 m/s 655 mmHg 24%
    09:00 +31°C° 0 mm 3 m/s 655 mmHg 17%
    10:00 +35°C° 0 mm 4 m/s 656 mmHg 10%
    11:00 +37°C° 0 mm 3 m/s 655 mmHg 10%
    12:00 +39°C° 0 mm 3 m/s 654 mmHg 10%
    13:00 +40°C° 0 mm 3 m/s 654 mmHg 11%
    14:00 +40°C° 0 mm 2 m/s 653 mmHg 11%
    15:00 +39°C° 0 mm 2 m/s 653 mmHg 11%
    16:00 +38°C° 0 mm 2 m/s 652 mmHg 11%
    17:00 +36°C° 0 mm 2 m/s 652 mmHg 14%
    18:00 +34°C° 0 mm 2 m/s 653 mmHg 17%
    19:00 +31°C° 0 mm 2 m/s 653 mmHg 19%
    20:00 +29°C° 0 mm 2 m/s 653 mmHg 26%
    21:00 +28°C° 0 mm 2 m/s 653 mmHg 32%
    22:00 +26°C° 0 mm 2 m/s 653 mmHg 39%
    23:00 +25°C° 0 mm 2 m/s 653 mmHg 41%

    29 Septembre, Samedi

    Heure Température Précipitation Vent Pression Humidité
    00:00 +25°C° 0 mm 2 m/s 652 mmHg 44%
    01:00 +24°C° 0 mm 2 m/s 652 mmHg 47%
    02:00 +23°C° 0 mm 2 m/s 652 mmHg 48%
    03:00 +23°C° 0 mm 1 m/s 652 mmHg 49%
    04:00 +23°C° 0 mm 1 m/s 652 mmHg 50%
    05:00 +23°C° 0 mm 1 m/s 652 mmHg 47%
    06:00 +24°C° 0 mm 1 m/s 653 mmHg 45%
    07:00 +24°C° 0 mm 1 m/s 654 mmHg 42%
    08:00 +28°C° 0 mm 1 m/s 654 mmHg 33%
    09:00 +31°C° 0 mm 1 m/s 655 mmHg 24%
    10:00 +35°C° 0 mm 2 m/s 656 mmHg 15%
    11:00 +37°C° 0 mm 2 m/s 655 mmHg 14%
    12:00 +39°C° 0 mm 2 m/s 655 mmHg 13%
    13:00 +41°C° 0 mm 2 m/s 655 mmHg 12%
    14:00 +39°C° 0 mm 3 m/s 654 mmHg 14%
    15:00 +38°C° 0 mm 4 m/s 654 mmHg 17%
    16:00 +36°C° 0 mm 5 m/s 653 mmHg 20%
    17:00 +34°C° 0 mm 4 m/s 653 mmHg 25%
    18:00 +31°C° 0 mm 3 m/s 653 mmHg 29%
    19:00 +29°C° 0 mm 2 m/s 654 mmHg 34%
    20:00 +28°C° 0 mm 2 m/s 654 mmHg 38%
    21:00 +26°C° 0 mm 2 m/s 654 mmHg 42%
    22:00 +25°C° 0 mm 2 m/s 654 mmHg 47%
    23:00 +24°C° 0.1 mm 2 m/s 654 mmHg 51%
    Voir plus